Asheboro, NC

3:39 AM EST on December 09, 2016 (GMT -0500)
Asheboro Municipal

Weather History for KHBI - June, 2013

Change the Weather History Date:

Sunday, June 23, 2013

  Actual Average Record
Temperature  
Mean Temperature 74 °F -  
Max Temperature 83 °F 85 °F 98 °F (1956)
Min Temperature 66 °F 65 °F 50 °F (1947)
Cooling Degree Days 10    
Growing Degree Days 24 (Base 50)    
Moisture  
Dew Point 69 °F    
Average Humidity 85    
Maximum Humidity 99    
Minimum Humidity 61    
Precipitation  
Precipitation 0.00 in - - ()
Sea Level Pressure  
Sea Level Pressure 30.21 in    
Wind  
Wind Speed 1 mph (South)    
Max Wind Speed 9 mph    
Max Gust Speed -    
Visibility 10 miles    
Events Rain    
Averages and records for this station are not official NWS values.
T = Trace of Precipitation, MM = Missing Value Source: NWS Daily Summary

Daily Weather History Graph

Daily Weather History Graph

Search for Another Location

Airport or City:

Trip Planner

Search our weather history database for the weather conditions in past years. The results will help you decide how hot, cold, wet, or windy it might be!

Date:

Astronomy

Jun. 23, 2013 Rise Set
Actual Time 6:04 AM EDT 8:39 PM EDT
Civil Twilight 5:34 AM EDT 9:09 PM EDT
Nautical Twilight 4:57 AM EDT 9:46 PM EDT
Astronomical Twilight 4:15 AM EDT 10:27 PM EDT
Moon 8:52 PM EDT (6/23) 6:17 AM EDT (6/23)
Length of Visible Light 15h 34m
Length of Day
14h 34m
Full, 100% of the Moon is Illuminated
Jun 23
Full
Jun 30
Last Quarter
Jul 8
New
Jul 15
First Quarter
Jul 22
Full

Hourly Weather History & Observations

Time (EDT) Temp. Heat Index Dew Point Humidity Pressure Visibility Wind Dir Wind Speed Gust Speed Precip Events Conditions
12:15 AM 68.4 °F - 67.5 °F 97% 30.22 in 10.0 mi Calm Calm - N/A   Clear
12:35 AM 68.2 °F - 67.3 °F 97% 30.22 in 10.0 mi Calm Calm - N/A   Clear
12:55 AM 68.0 °F - 67.3 °F 98% 30.22 in 10.0 mi Calm Calm - N/A   Clear
1:15 AM 67.6 °F - 67.1 °F 98% 30.21 in 10.0 mi Calm Calm - N/A   Clear
1:35 AM 67.5 °F - 67.1 °F 99% 30.21 in 10.0 mi Calm Calm - N/A   Clear
1:55 AM 67.1 °F - 66.7 °F 99% 30.21 in 10.0 mi Calm Calm - N/A   Clear
2:15 AM 68.0 °F - 67.1 °F 97% 30.20 in 10.0 mi Calm Calm - N/A   Clear
2:35 AM 68.0 °F - 66.9 °F 96% 30.20 in 10.0 mi Calm Calm - N/A   Clear
2:55 AM 67.5 °F - 66.7 °F 98% 30.19 in 10.0 mi Calm Calm - N/A   Clear
3:15 AM 67.3 °F - 66.7 °F 98% 30.20 in 10.0 mi Calm Calm - N/A   Clear
3:35 AM 67.6 °F - 66.7 °F 97% 30.20 in 10.0 mi Calm Calm - N/A   Clear
3:55 AM 67.5 °F - 66.9 °F 98% 30.19 in 10.0 mi Calm Calm - N/A   Clear
4:15 AM 66.7 °F - 66.2 °F 98% 30.19 in 10.0 mi Calm Calm - N/A   Scattered Clouds
4:35 AM 67.3 °F - 66.7 °F 98% 30.19 in 10.0 mi Calm Calm - N/A   Scattered Clouds
4:55 AM 66.7 °F - 66.2 °F 98% 30.20 in 10.0 mi Calm Calm - N/A   Mostly Cloudy
5:15 AM 66.7 °F - 66.4 °F 99% 30.19 in 10.0 mi Calm Calm - N/A   Mostly Cloudy
5:35 AM 66.6 °F - 66.2 °F 99% 30.20 in 10.0 mi Calm Calm - N/A   Scattered Clouds
5:55 AM 67.1 °F - 66.6 °F 98% 30.20 in 10.0 mi Calm Calm - N/A   Scattered Clouds
6:15 AM 66.7 °F - 66.2 °F 98% 30.20 in 10.0 mi Calm Calm - N/A   Clear
6:35 AM 67.1 °F - 66.6 °F 98% 30.21 in 10.0 mi Calm Calm - N/A   Clear
6:55 AM 67.1 °F - 66.6 °F 98% 30.22 in 10.0 mi Calm Calm - N/A   Clear
7:15 AM 67.3 °F - 66.9 °F 99% 30.22 in 10.0 mi Calm Calm - N/A   Scattered Clouds
7:35 AM 68.0 °F - 67.5 °F 98% 30.22 in 10.0 mi Calm Calm - N/A   Scattered Clouds
7:55 AM 69.8 °F - 68.9 °F 97% 30.24 in 10.0 mi Calm Calm - N/A   Clear
8:15 AM 70.7 °F - 69.3 °F 95% 30.25 in 10.0 mi Calm Calm - N/A   Mostly Cloudy
8:35 AM 70.9 °F - 69.4 °F 95% 30.26 in 10.0 mi Calm Calm - N/A   Overcast
8:55 AM 72.0 °F - 69.8 °F 93% 30.26 in 10.0 mi Calm Calm - N/A   Overcast
9:15 AM 73.0 °F - 70.2 °F 91% 30.25 in 10.0 mi Calm Calm - N/A   Mostly Cloudy
9:35 AM 74.7 °F - 70.7 °F 87% 30.26 in 10.0 mi Calm Calm - N/A   Scattered Clouds
9:55 AM 76.5 °F - 70.7 °F 82% 30.25 in 10.0 mi Calm Calm - N/A   Scattered Clouds
10:15 AM 76.8 °F - 70.0 °F 79% 30.25 in 10.0 mi Calm Calm - N/A   Mostly Cloudy
10:35 AM 77.2 °F - 70.3 °F 79% 30.25 in 10.0 mi Calm Calm - N/A   Scattered Clouds
10:55 AM 77.9 °F - 69.8 °F 76% 30.25 in 10.0 mi Calm Calm - N/A   Scattered Clouds
11:15 AM 78.3 °F - 69.6 °F 75% 30.25 in 10.0 mi Calm Calm - N/A   Scattered Clouds
11:35 AM 79.0 °F - 69.3 °F 72% 30.25 in 10.0 mi Calm Calm - N/A   Mostly Cloudy
11:55 AM 79.5 °F - 69.6 °F 72% 30.25 in 10.0 mi Calm Calm - N/A   Scattered Clouds
12:15 PM 80.1 °F 83.2 °F 69.8 °F 71% 30.24 in 10.0 mi Calm Calm - N/A   Scattered Clouds
12:35 PM 80.8 °F 83.9 °F 69.4 °F 68% 30.24 in 10.0 mi Calm Calm - N/A   Mostly Cloudy
12:55 PM 80.8 °F 83.9 °F 69.4 °F 68% 30.24 in 10.0 mi Calm Calm - N/A   Scattered Clouds
1:15 PM 81.7 °F 84.9 °F 69.1 °F 65% 30.23 in 10.0 mi South 4.6 mph - N/A   Scattered Clouds
1:35 PM 82.2 °F 85.1 °F 68.2 °F 62% 30.23 in 10.0 mi South 3.5 mph - N/A   Scattered Clouds
1:55 PM 81.9 °F 85.4 °F 69.4 °F 66% 30.22 in 10.0 mi SSW 3.5 mph - N/A   Clear
2:15 PM 81.5 °F 84.9 °F 69.4 °F 67% 30.21 in 10.0 mi WSW 3.5 mph - N/A   Clear
2:35 PM 82.6 °F 86.6 °F 70.0 °F 66% 30.21 in 10.0 mi WSW 3.5 mph - N/A   Clear
2:55 PM 82.6 °F 86.4 °F 69.6 °F 65% 30.19 in 10.0 mi Calm Calm - N/A   Mostly Cloudy
3:15 PM 83.5 °F 86.9 °F 68.7 °F 61% 30.19 in 10.0 mi SSW 4.6 mph - N/A   Mostly Cloudy
3:35 PM 82.8 °F 86.0 °F 68.4 °F 62% 30.19 in 10.0 mi West 3.5 mph - N/A   Scattered Clouds
3:55 PM 81.5 °F 85.1 °F 70.0 °F 68% 30.19 in 10.0 mi WSW 3.5 mph - N/A   Clear
4:15 PM 81.5 °F 85.7 °F 71.2 °F 71% 30.18 in 10.0 mi SSW 4.6 mph - N/A   Clear
4:35 PM 79.0 °F - 72.9 °F 81% 30.19 in 10.0 mi South 5.8 mph - N/A Rain Light Rain
4:55 PM 77.4 °F - 70.9 °F 80% 30.18 in 10.0 mi South 4.6 mph - N/A Rain Light Rain
5:15 PM 78.1 °F - 68.5 °F 72% 30.18 in 10.0 mi Calm Calm - N/A   Clear
5:35 PM 78.8 °F - 69.1 °F 72% 30.18 in 10.0 mi SSE 3.5 mph - N/A   Clear
5:55 PM 78.1 °F - 71.1 °F 79% 30.18 in 10.0 mi SE 4.6 mph - N/A   Clear
6:15 PM 77.0 °F - 71.6 °F 83% 30.19 in 10.0 mi SE 4.6 mph - N/A   Clear
6:35 PM 76.5 °F - 69.4 °F 79% 30.19 in 10.0 mi SE 5.8 mph - N/A   Clear
6:55 PM 75.6 °F - 69.8 °F 82% 30.18 in 10.0 mi SSE 3.5 mph - N/A   Clear
7:15 PM 75.7 °F - 69.8 °F 82% 30.18 in 10.0 mi Calm Calm - N/A   Clear
7:35 PM 75.4 °F - 69.6 °F 82% 30.17 in 10.0 mi SSE 3.5 mph - N/A   Clear
7:55 PM 75.4 °F - 69.6 °F 82% 30.19 in 10.0 mi Calm Calm - N/A   Clear
8:15 PM 75.2 °F - 69.1 °F 81% 30.19 in 10.0 mi SE 3.5 mph - N/A   Clear
8:35 PM 74.1 °F - 68.9 °F 84% 30.21 in 10.0 mi Calm Calm - N/A   Clear
8:55 PM 73.4 °F - 68.4 °F 84% 30.21 in 10.0 mi ESE 3.5 mph - N/A   Clear
9:15 PM 73.6 °F - 68.7 °F 85% 30.21 in 10.0 mi SSE 4.6 mph - N/A   Clear
9:35 PM 73.0 °F - 68.9 °F 87% 30.21 in 10.0 mi SSE 5.8 mph - N/A   Clear
9:55 PM 73.0 °F - 68.9 °F 87% 30.22 in 10.0 mi SE 4.6 mph - N/A   Clear
10:15 PM 72.7 °F - 69.4 °F 90% 30.22 in 10.0 mi SSE 9.2 mph - N/A   Clear
10:35 PM 72.7 °F - 69.8 °F 91% 30.22 in 10.0 mi SSE 6.9 mph - N/A   Clear
10:55 PM 72.9 °F - 69.8 °F 90% 30.22 in 10.0 mi South 4.6 mph - N/A   Clear
11:15 PM 72.1 °F - 69.8 °F 92% 30.22 in 10.0 mi SSE 4.6 mph - N/A   Clear
11:35 PM 72.9 °F - 70.0 °F 91% 30.22 in 10.0 mi South 4.6 mph - N/A   Clear
11:55 PM 72.9 °F - 69.8 °F 90% 30.22 in 10.0 mi South 3.5 mph - N/A   Clear